| time (UTC) | temp F | wind direction | speed knots | gust knots | rain 1hr in | rain 24hr in | rain mn in | humidity % | barometer mb |
| 20260510204343 | 61 | 125 | 2.6 | 6.1 | 0.00 | 0.00 | 0.00 | 50 | |
| 20260510204337 | 59 | 220 | 1.7 | 3.5 | 0.00 | 0.00 | 0.00 | 52 | |
| 20260510203837 | 60 | 246 | 0.9 | 7.0 | 0.00 | 0.00 | 0.00 | 51 | |
| 20260510203337 | 61 | 125 | 2.6 | 6.1 | 0.00 | 0.00 | 0.00 | 50 | |
| 20260510202837 | 59 | 229 | 4.3 | 8.7 | 0.00 | 0.00 | 0.00 | 51 | |
| 20260510202337 | 60 | 357 | 0.0 | 2.6 | 0.00 | 0.00 | 0.00 | 52 | |
| 20260510201837 | 59 | 208 | 0.0 | 4.3 | 0.00 | 0.00 | 0.00 | 53 | |
| 20260510201337 | 59 | 194 | 0.9 | 0.9 | 0.00 | 0.00 | 0.00 | 53 | |
| 20260510200837 | 59 | 165 | 0.0 | 4.3 | 0.00 | 0.00 | 0.00 | 53 | |
| 20260510200337 | 59 | 170 | 0.9 | 5.2 | 0.00 | 0.00 | 0.00 | 53 | |
| 20260510195837 | 59 | 196 | 5.2 | 6.1 | 0.00 | 0.00 | 0.00 | 52 | |
| 20260510195337 | 60 | 157 | 0.9 | 4.3 | 0.00 | 0.00 | 0.00 | 51 | |
| 20260510194837 | 60 | 156 | 2.6 | 6.1 | 0.00 | 0.00 | 0.00 | 52 | |
| 20260510194337 | 60 | 127 | 1.7 | 7.0 | 0.00 | 0.00 | 0.00 | 52 | |
| 20260510193837 | 60 | 198 | 0.0 | 6.1 | 0.00 | 0.00 | 0.00 | 52 | |
| 20260510193337 | 60 | 181 | 0.0 | 5.2 | 0.00 | 0.00 | 0.00 | 52 | |
| 20260510192837 | 59 | 258 | 3.5 | 5.2 | 0.00 | 0.00 | 0.00 | 53 | |
| 20260510192337 | 60 | 178 | 0.0 | 3.5 | 0.00 | 0.00 | 0.00 | 52 | |
| 20260510191837 | 60 | 151 | 2.6 | 5.2 | 0.00 | 0.00 | 0.00 | 52 | |
| 20260510191337 | 61 | 80 | 0.0 | 5.2 | 0.00 | 0.00 | 0.00 | 51 | |
| 20260510190837 | 61 | 125 | 0.9 | 2.6 | 0.00 | 0.00 | 0.00 | 51 | |
| 20260510190337 | 61 | 98 | 0.9 | 3.5 | 0.00 | 0.00 | 0.00 | 51 | |
| 20260510185837 | 60 | 66 | 0.0 | 7.0 | 0.00 | 0.00 | 0.00 | 51 | |
| 20260510185337 | 60 | 85 | 0.0 | 2.6 | 0.00 | 0.00 | 0.00 | 53 | |
| 20260510184838 | 59 | 281 | 0.0 | 7.8 | 0.00 | 0.00 | 0.00 | 52 | |
| 20260510184337 | 60 | 189 | 5.2 | 7.0 | 0.00 | 0.00 | 0.00 | 53 | |
| 20260510183837 | 59 | 178 | 6.1 | 7.8 | 0.00 | 0.00 | 0.00 | 53 | |
| 20260510183337 | 58 | 157 | 0.0 | 1.7 | 0.00 | 0.00 | 0.00 | 56 | |
| 20260510182837 | 58 | 81 | 0.0 | 2.6 | 0.00 | 0.00 | 0.00 | 57 | |
| 20260510182337 | 58 | 160 | 0.0 | 2.6 | 0.00 | 0.00 | 0.00 | 57 | |
| 20260510181837 | 58 | 144 | 0.0 | 3.5 | 0.00 | 0.00 | 0.00 | 57 | |
| 20260510181337 | 59 | 322 | 0.0 | 2.6 | 0.00 | 0.00 | 0.00 | 54 | |
| 20260510180837 | 59 | 285 | 0.9 | 3.5 | 0.00 | 0.00 | 0.00 | 53 | |
| 20260510180337 | 59 | 151 | 1.7 | 5.2 | 0.00 | 0.00 | 0.00 | 52 | |
| 20260510175837 | 60 | 87 | 0.9 | 3.5 | 0.00 | 0.00 | 0.00 | 51 | |
| 20260510175337 | 60 | 210 | 3.5 | 7.8 | 0.00 | 0.00 | 0.00 | 52 | |
| 20260510174837 | 60 | 329 | 0.0 | 11.3 | 0.00 | 0.00 | 0.00 | 52 | |
| 20260510174337 | 60 | 182 | 9.6 | 9.6 | 0.00 | 0.00 | 0.00 | 51 | |
| 20260510173837 | 61 | 66 | 0.0 | 4.3 | 0.00 | 0.00 | 0.00 | 50 | |
| 20260510173337 | 60 | 132 | 2.6 | 7.8 | 0.00 | 0.00 | 0.00 | 52 | |
| 20260510172837 | 59 | 151 | 7.8 | 7.8 | 0.00 | 0.00 | 0.00 | 54 | |
| 20260510172337 | 59 | 60 | 0.0 | 3.5 | 0.00 | 0.00 | 0.00 | 54 | |
| 20260510171837 | 59 | 237 | 2.6 | 5.2 | 0.00 | 0.00 | 0.00 | 53 | |
| 20260510171337 | 59 | 161 | 4.3 | 8.7 | 0.00 | 0.00 | 0.00 | 51 | |
| 20260510170837 | 60 | 237 | 2.6 | 7.0 | 0.00 | 0.00 | 0.00 | 50 | |
| 20260510170337 | 61 | 157 | 2.6 | 5.2 | 0.00 | 0.00 | 0.00 | 46 | |
| 20260510165837 | 62 | 5 | 0.0 | 5.2 | 0.00 | 0.00 | 0.00 | 46 | |
| 20260510165337 | 61 | 278 | 0.0 | 3.5 | 0.00 | 0.00 | 0.00 | 49 | |
| 20260510164837 | 60 | 164 | 0.9 | 4.3 | 0.00 | 0.00 | 0.00 | 50 | |
| 20260510164337 | 59 | 284 | 1.7 | 8.7 | 0.00 | 0.00 | 0.00 | 54 | |
| 20260510163837 | 58 | 225 | 0.9 | 11.3 | 0.00 | 0.00 | 0.00 | 53 | |
| 20260510163338 | 58 | 171 | 4.3 | 6.1 | 0.00 | 0.00 | 0.00 | 53 | |
| 20260510162837 | 58 | 239 | 2.6 | 4.3 | 0.00 | 0.00 | 0.00 | 53 | |
| 20260510162337 | 58 | 240 | 0.0 | 3.5 | 0.00 | 0.00 | 0.00 | 54 | |
| 20260510161837 | 57 | 199 | 2.6 | 4.3 | 0.00 | 0.00 | 0.00 | 55 | |
| 20260510161337 | 57 | 172 | 0.0 | 6.1 | 0.00 | 0.00 | 0.00 | 55 | |
| 20260510160837 | 57 | 295 | 0.0 | 5.2 | 0.00 | 0.00 | 0.00 | 55 | |
| 20260510160337 | 56 | 279 | 2.6 | 3.5 | 0.00 | 0.00 | 0.00 | 57 | |
| 20260510155837 | 55 | 177 | 1.7 | 5.2 | 0.00 | 0.00 | 0.00 | 57 | |
| 20260510155337 | 55 | 151 | 0.9 | 7.0 | 0.00 | 0.00 | 0.00 | 58 | |
| 20260510154837 | 55 | 225 | 2.6 | 5.2 | 0.00 | 0.00 | 0.00 | 58 | |
| 20260510154337 | 55 | 255 | 1.7 | 8.7 | 0.00 | 0.00 | 0.00 | 58 | |
| 20260510153837 | 55 | 137 | 3.5 | 6.1 | 0.00 | 0.00 | 0.00 | 59 | |
| 20260510153337 | 55 | 177 | 0.9 | 7.0 | 0.00 | 0.00 | 0.00 | 60 | |
| 20260510152837 | 54 | 172 | 2.6 | 7.0 | 0.00 | 0.00 | 0.00 | 61 | |
| 20260510152337 | 55 | 161 | 4.3 | 6.1 | 0.00 | 0.00 | 0.00 | 61 | |
| 20260510151837 | 55 | 151 | 0.0 | 4.3 | 0.00 | 0.00 | 0.00 | 62 | |
| 20260510151337 | 53 | 180 | 1.7 | 6.1 | 0.00 | 0.00 | 0.00 | 63 | |
| 20260510150837 | 53 | 157 | 4.3 | 7.0 | 0.00 | 0.00 | 0.00 | 65 | |
| 20260510150337 | 52 | 181 | 4.3 | 7.0 | 0.00 | 0.00 | 0.00 | 66 | |
| 20260510145837 | 52 | 222 | 2.6 | 7.8 | 0.00 | 0.00 | 0.00 | 67 | |
| 20260510145339 | 52 | 189 | 3.5 | 6.1 | 0.00 | 0.00 | 0.00 | 67 | |
| 20260510144837 | 51 | 175 | 4.3 | 8.7 | 0.00 | 0.00 | 0.00 | 67 | |
| 20260510144337 | 51 | 319 | 0.0 | 7.0 | 0.00 | 0.00 | 0.00 | 67 | |
| 20260510143837 | 51 | 135 | 1.7 | 6.1 | 0.00 | 0.00 | 0.00 | 67 | |
| 20260510143337 | 51 | 226 | 2.6 | 6.1 | 0.00 | 0.00 | 0.00 | 67 | |
| 20260510142837 | 51 | 220 | 1.7 | 7.0 | 0.00 | 0.00 | 0.00 | 67 | |
| 20260510142337 | 51 | 168 | 3.5 | 7.0 | 0.00 | 0.00 | 0.00 | 65 | |
| 20260510141837 | 52 | 237 | 1.7 | 7.0 | 0.00 | 0.00 | 0.00 | 65 | |
| 20260510141337 | 52 | 185 | 5.2 | 7.0 | 0.00 | 0.00 | 0.00 | 62 | |
| 20260510140837 | 53 | 156 | 0.0 | 0.0 | 0.00 | 0.00 | 0.00 | 59 | |
| 20260510140337 | 53 | 156 | 0.0 | 0.0 | 0.00 | 0.00 | 0.00 | 59 | |
| 20260510135837 | 53 | 156 | 0.0 | 0.0 | 0.00 | 0.00 | 0.00 | 59 | |
| 20260510135337 | 53 | 156 | 0.0 | 0.0 | 0.00 | 0.00 | 0.00 | 60 | |
| 20260510134837 | 53 | 156 | 0.0 | 0.0 | 0.00 | 0.00 | 0.00 | 59 | |
| 20260510134337 | 53 | 156 | 0.0 | 0.0 | 0.00 | 0.00 | 0.00 | 60 | |
| 20260510133837 | 53 | 156 | 0.0 | 0.0 | 0.00 | 0.00 | 0.00 | 61 | |
| 20260510133337 | 52 | 156 | 0.0 | 0.0 | 0.00 | 0.00 | 0.00 | 61 | |
| 20260510132837 | 52 | 156 | 0.0 | 0.0 | 0.00 | 0.00 | 0.00 | 61 | |
| 20260510132338 | 52 | 156 | 0.0 | 0.0 | 0.00 | 0.00 | 0.00 | 60 | |
| 20260510131837 | 52 | 156 | 0.0 | 0.0 | 0.00 | 0.00 | 0.00 | 61 | |
| 20260510131337 | 51 | 156 | 0.0 | 0.0 | 0.00 | 0.00 | 0.00 | 63 | |
| 20260510130837 | 51 | 156 | 0.0 | 0.0 | 0.00 | 0.00 | 0.00 | 64 | |
| 20260510130337 | 51 | 156 | 0.0 | 0.0 | 0.00 | 0.00 | 0.00 | 64 | |
| 20260510125837 | 51 | 156 | 0.0 | 0.0 | 0.00 | 0.00 | 0.00 | 64 | |
| 20260510125337 | 50 | 156 | 0.0 | 0.0 | 0.00 | 0.00 | 0.00 | 67 | |
| 20260510124837 | 50 | 156 | 0.0 | 0.0 | 0.00 | 0.00 | 0.00 | 65 | |
| 20260510124337 | 50 | 156 | 0.0 | 0.0 | 0.00 | 0.00 | 0.00 | 66 | |
| 20260510123838 | 50 | 156 | 0.0 | 0.0 | 0.00 | 0.00 | 0.00 | 66 | |
| 20260510123338 | 50 | 156 | 0.0 | 0.0 | 0.00 | 0.00 | 0.00 | 65 | |
| 20260510122838 | 50 | 156 | 0.0 | 0.0 | 0.00 | 0.00 | 0.00 | 64 | |
| 20260510122338 | 50 | 156 | 0.0 | 0.0 | 0.00 | 0.00 | 0.00 | 64 | |
| 20260510121838 | 50 | 156 | 0.0 | 0.0 | 0.00 | 0.00 | 0.00 | 65 | |
| 20260510121338 | 50 | 156 | 0.0 | 0.0 | 0.00 | 0.00 | 0.00 | 65 | |
| 20260510120838 | 51 | 156 | 0.0 | 0.0 | 0.00 | 0.00 | 0.00 | 64 | |
| 20260510120338 | 51 | 156 | 0.0 | 0.0 | 0.00 | 0.00 | 0.00 | 64 | |
| 20260510115838 | 51 | 156 | 0.0 | 0.0 | 0.00 | 0.00 | 0.00 | 63 | |
| 20260510115338 | 52 | 156 | 0.0 | 0.0 | 0.00 | 0.00 | 0.00 | 63 | |
| 20260510114838 | 52 | 156 | 0.0 | 0.0 | 0.00 | 0.00 | 0.00 | 62 | |
| 20260510114338 | 52 | 156 | 0.0 | 0.0 | 0.00 | 0.00 | 0.00 | 62 | |
| 20260510113838 | 52 | 156 | 0.0 | 0.0 | 0.00 | 0.00 | 0.00 | 60 | |
| 20260510113339 | 52 | 156 | 0.0 | 0.0 | 0.00 | 0.00 | 0.00 | 60 | |
| 20260510112838 | 53 | 156 | 0.0 | 0.0 | 0.00 | 0.00 | 0.00 | 60 | |
| 20260510112338 | 53 | 156 | 0.0 | 0.0 | 0.00 | 0.00 | 0.00 | 59 | |
| 20260510111838 | 53 | 156 | 0.0 | 0.0 | 0.00 | 0.00 | 0.00 | 59 | |
| 20260510111338 | 53 | 156 | 0.0 | 0.0 | 0.00 | 0.00 | 0.00 | 58 | |
| 20260510110839 | 53 | 156 | 0.0 | 0.0 | 0.00 | 0.00 | 0.00 | 58 | |
| 20260510110338 | 53 | 156 | 0.0 | 0.0 | 0.00 | 0.00 | 0.00 | 58 | |
| 20260510105838 | 53 | 156 | 0.0 | 3.5 | 0.00 | 0.00 | 0.00 | 57 | |
| 20260510105338 | 54 | 202 | 1.7 | 3.5 | 0.00 | 0.00 | 0.00 | 57 | |
| 20260510104838 | 54 | 157 | 0.9 | 6.1 | 0.00 | 0.00 | 0.00 | 55 | |
| 20260510104338 | 55 | 202 | 0.0 | 2.6 | 0.00 | 0.00 | 0.00 | 52 | |
| 20260510103838 | 55 | 229 | 0.0 | 2.6 | 0.00 | 0.00 | 0.00 | 51 | |
| 20260510103338 | 54 | 216 | 2.6 | 7.0 | 0.00 | 0.00 | 0.00 | 51 | |
| 20260510102838 | 54 | 216 | 6.1 | 8.7 | 0.00 | 0.00 | 0.00 | 51 | |
| 20260510102338 | 53 | 243 | 0.0 | 0.0 | 0.00 | 0.00 | 0.00 | 52 | |
| 20260510101838 | 53 | 243 | 0.0 | 0.0 | 0.00 | 0.00 | 0.00 | 52 | |
| 20260510101338 | 53 | 243 | 0.0 | 0.0 | 0.00 | 0.00 | 0.00 | 53 | |
| 20260510100838 | 53 | 243 | 0.0 | 0.0 | 0.00 | 0.00 | 0.00 | 53 | |
| 20260510100338 | 53 | 243 | 0.0 | 0.0 | 0.00 | 0.00 | 0.00 | 53 | |
| 20260510095838 | 53 | 243 | 0.0 | 0.0 | 0.00 | 0.00 | 0.00 | 52 | |
| 20260510095338 | 52 | 243 | 0.0 | 0.0 | 0.00 | 0.00 | 0.00 | 51 | |
| 20260510094838 | 52 | 243 | 0.0 | 0.0 | 0.00 | 0.00 | 0.00 | 51 | |
| 20260510094338 | 52 | 243 | 0.0 | 0.0 | 0.00 | 0.00 | 0.00 | 53 | |
| 20260510093838 | 52 | 243 | 0.0 | 0.0 | 0.00 | 0.00 | 0.00 | 52 | |
| 20260510093338 | 52 | 243 | 0.0 | 0.0 | 0.00 | 0.00 | 0.00 | 51 | |
| 20260510092838 | 52 | 243 | 0.0 | 0.0 | 0.00 | 0.00 | 0.00 | 52 | |
| 20260510092338 | 52 | 243 | 0.0 | 0.0 | 0.00 | 0.00 | 0.00 | 52 | |
| 20260510091838 | 52 | 243 | 0.0 | 0.0 | 0.00 | 0.00 | 0.00 | 51 | |
| 20260510091338 | 51 | 243 | 0.0 | 0.0 | 0.00 | 0.00 | 0.00 | 51 | |
| 20260510090838 | 51 | 243 | 0.0 | 0.0 | 0.00 | 0.00 | 0.00 | 52 | |
| 20260510090338 | 51 | 243 | 0.0 | 0.0 | 0.00 | 0.00 | 0.00 | 54 | |
| 20260510085838 | 51 | 243 | 0.0 | 0.0 | 0.00 | 0.00 | 0.00 | 54 | |
| 20260510085338 | 51 | 243 | 0.0 | 0.0 | 0.00 | 0.00 | 0.00 | 53 | |
| 20260510084838 | 51 | 243 | 0.0 | 0.0 | 0.00 | 0.00 | 0.00 | 54 | |
| 20260510084338 | 51 | 243 | 0.0 | 0.0 | 0.00 | 0.00 | 0.00 | 54 | |
| 20260510083838 | 51 | 243 | 0.0 | 0.0 | 0.00 | 0.00 | 0.00 | 53 | |
| 20260510083338 | 51 | 243 | 0.0 | 0.0 | 0.00 | 0.00 | 0.00 | 53 | |
| 20260510082838 | 50 | 243 | 0.0 | 0.0 | 0.00 | 0.00 | 0.00 | 53 | |
| 20260510082338 | 50 | 243 | 0.0 | 0.0 | 0.00 | 0.00 | 0.00 | 53 | |
| 20260510081838 | 50 | 243 | 0.0 | 0.0 | 0.00 | 0.00 | 0.00 | 53 | |
| 20260510081338 | 50 | 243 | 0.0 | 0.0 | 0.00 | 0.00 | 0.00 | 52 | |
| 20260510080838 | 50 | 243 | 0.0 | 0.0 | 0.00 | 0.00 | 0.00 | 52 | |
| 20260510080338 | 50 | 243 | 0.0 | 0.0 | 0.00 | 0.00 | 0.00 | 51 | |
| 20260510075838 | 50 | 243 | 0.0 | 0.0 | 0.00 | 0.00 | 0.00 | 52 | |
| 20260510075338 | 50 | 243 | 0.0 | 0.0 | 0.00 | 0.00 | 0.00 | 50 | |
| 20260510074838 | 50 | 243 | 0.0 | 0.0 | 0.00 | 0.00 | 0.00 | 51 | |
| 20260510074338 | 51 | 243 | 0.0 | 0.0 | 0.00 | 0.00 | 0.00 | 51 | |
| 20260510073838 | 51 | 243 | 0.0 | 0.0 | 0.00 | 0.00 | 0.00 | 51 | |
| 20260510073338 | 51 | 243 | 0.0 | 0.0 | 0.00 | 0.00 | 0.00 | 51 | |
| 20260510072838 | 51 | 243 | 0.0 | 0.0 | 0.00 | 0.00 | 0.00 | 51 | |
| 20260510072338 | 51 | 243 | 0.0 | 0.0 | 0.00 | 0.00 | 0.00 | 50 | |
| 20260510071838 | 51 | 243 | 0.0 | 0.0 | 0.00 | 0.00 | 0.00 | 51 | |
| 20260510071338 | 51 | 243 | 0.0 | 0.0 | 0.00 | 0.00 | 0.00 | 49 | |
| 20260510070838 | 51 | 243 | 0.0 | 0.0 | 0.00 | 0.00 | 0.00 | 50 | |
| 20260510070338 | 51 | 243 | 0.0 | 0.0 | 0.00 | 0.00 | 0.00 | 49 | |
| 20260510065838 | 51 | 243 | 0.0 | 0.0 | 0.00 | 0.00 | 0.00 | 51 | |
| 20260510065338 | 51 | 243 | 0.0 | 0.0 | 0.00 | 0.00 | 0.00 | 50 | |
| 20260510064838 | 51 | 243 | 0.0 | 0.0 | 0.00 | 0.00 | 0.00 | 51 | |
| 20260510064338 | 51 | 243 | 0.0 | 0.0 | 0.00 | 0.00 | 0.00 | 49 | |
| 20260510063838 | 51 | 243 | 0.0 | 0.0 | 0.00 | 0.00 | 0.00 | 49 | |
| 20260510063338 | 51 | 243 | 0.0 | 0.0 | 0.00 | 0.00 | 0.00 | 49 | |
| 20260510062838 | 51 | 243 | 0.0 | 0.0 | 0.00 | 0.00 | 0.00 | 48 | |
| 20260510062338 | 51 | 243 | 0.0 | 0.0 | 0.00 | 0.00 | 0.00 | 48 | |
| 20260510061838 | 51 | 243 | 0.0 | 0.0 | 0.00 | 0.00 | 0.00 | 47 | |
| 20260510061338 | 51 | 243 | 0.0 | 0.0 | 0.00 | 0.00 | 0.00 | 47 | |
| 20260510060838 | 51 | 243 | 0.0 | 0.0 | 0.00 | 0.00 | 0.00 | 48 | |
| 20260510060338 | 51 | 243 | 0.0 | 0.0 | 0.00 | 0.00 | 0.00 | 47 | |
| 20260510055838 | 51 | 243 | 0.0 | 0.0 | 0.00 | 0.00 | 0.00 | 49 | |
| 20260510055338 | 51 | 243 | 0.0 | 0.0 | 0.00 | 0.00 | 0.00 | 48 | |
| 20260510054838 | 51 | 243 | 0.0 | 0.0 | 0.00 | 0.00 | 0.00 | 49 | |
| 20260510054338 | 51 | 243 | 0.0 | 0.0 | 0.00 | 0.00 | 0.00 | 47 | |
| 20260510053838 | 52 | 243 | 0.0 | 0.0 | 0.00 | 0.00 | 0.00 | 47 | |
| 20260510053338 | 52 | 243 | 0.0 | 0.0 | 0.00 | 0.00 | 0.00 | 47 | |
| 20260510052838 | 52 | 243 | 0.0 | 0.0 | 0.00 | 0.00 | 0.00 | 48 | |
| 20260510052338 | 52 | 243 | 0.0 | 0.0 | 0.00 | 0.00 | 0.00 | 46 | |
| 20260510051838 | 52 | 243 | 0.0 | 0.0 | 0.00 | 0.00 | 0.00 | 45 | |
| 20260510051338 | 53 | 243 | 0.0 | 0.0 | 0.00 | 0.00 | 0.00 | 44 | |
| 20260510050838 | 53 | 243 | 0.0 | 0.0 | 0.00 | 0.00 | 0.00 | 45 | |
| 20260510050338 | 53 | 243 | 0.0 | 0.0 | 0.00 | 0.00 | 0.00 | 44 | |
| 20260510045838 | 53 | 243 | 0.0 | 0.0 | 0.00 | 0.00 | 0.00 | 43 | |
| 20260510045338 | 53 | 243 | 0.0 | 0.0 | 0.00 | 0.00 | 0.00 | 43 | |
| 20260510044838 | 53 | 243 | 0.0 | 0.0 | 0.00 | 0.00 | 0.00 | 43 | |
| 20260510044338 | 54 | 243 | 0.0 | 0.0 | 0.00 | 0.00 | 0.00 | 44 | |
| 20260510043838 | 54 | 243 | 0.0 | 0.0 | 0.00 | 0.00 | 0.00 | 42 | |
| 20260510043338 | 54 | 243 | 0.0 | 0.0 | 0.00 | 0.00 | 0.00 | 43 | |
| 20260510042838 | 54 | 243 | 0.0 | 0.0 | 0.00 | 0.00 | 0.00 | 42 | |
| 20260510042338 | 54 | 243 | 0.0 | 0.0 | 0.00 | 0.00 | 0.00 | 41 | |
| 20260510041838 | 54 | 243 | 0.0 | 0.0 | 0.00 | 0.00 | 0.00 | 42 | |
| 20260510041338 | 55 | 243 | 0.0 | 0.0 | 0.00 | 0.00 | 0.00 | 41 | |
| 20260510040838 | 55 | 243 | 0.0 | 0.0 | 0.00 | 0.00 | 0.00 | 40 | |
| 20260510040338 | 55 | 243 | 0.0 | 0.0 | 0.00 | 0.00 | 0.00 | 41 | |
| 20260510035838 | 55 | 243 | 0.0 | 0.0 | 0.00 | 0.00 | 0.00 | 39 | |
| 20260510035338 | 55 | 243 | 0.0 | 0.0 | 0.00 | 0.00 | 0.00 | 39 | |
| 20260510034838 | 55 | 243 | 0.0 | 0.0 | 0.00 | 0.00 | 0.00 | 42 | |
| 20260510034338 | 55 | 243 | 0.0 | 0.0 | 0.00 | 0.00 | 0.00 | 39 | |
| 20260510033838 | 55 | 243 | 0.0 | 0.0 | 0.00 | 0.00 | 0.00 | 40 | |
| 20260510033338 | 54 | 243 | 0.0 | 0.0 | 0.00 | 0.00 | 0.00 | 40 | |
| 20260510032838 | 54 | 243 | 0.0 | 0.0 | 0.00 | 0.00 | 0.00 | 39 | |
| 20260510032338 | 54 | 243 | 0.0 | 0.0 | 0.00 | 0.00 | 0.00 | 41 | |
| 20260510031838 | 54 | 243 | 0.0 | 0.0 | 0.00 | 0.00 | 0.00 | 42 | |
| 20260510031338 | 55 | 243 | 0.0 | 0.0 | 0.00 | 0.00 | 0.00 | 41 | |
| 20260510030839 | 55 | 243 | 0.0 | 0.0 | 0.00 | 0.00 | 0.00 | 41 | |
| 20260510030339 | 55 | 243 | 0.0 | 0.0 | 0.00 | 0.00 | 0.00 | 40 | |
| 20260510025839 | 55 | 243 | 0.0 | 0.0 | 0.00 | 0.00 | 0.00 | 39 | |
| 20260510025339 | 56 | 243 | 0.0 | 2.6 | 0.00 | 0.00 | 0.00 | 39 | |
| 20260510024839 | 56 | 313 | 2.6 | 3.5 | 0.00 | 0.00 | 0.00 | 38 | |
| 20260510024339 | 56 | 315 | 0.0 | 0.0 | 0.00 | 0.00 | 0.00 | 38 | |
| 20260510023839 | 57 | 315 | 0.0 | 0.0 | 0.00 | 0.00 | 0.00 | 36 | |
| 20260510023339 | 57 | 315 | 0.0 | 0.0 | 0.00 | 0.00 | 0.00 | 36 | |
| 20260510022839 | 58 | 315 | 0.0 | 0.0 | 0.00 | 0.00 | 0.00 | 35 | |
| 20260510022339 | 58 | 315 | 0.0 | 0.0 | 0.00 | 0.00 | 0.00 | 35 | |
| 20260510021839 | 59 | 315 | 0.0 | 0.0 | 0.00 | 0.00 | 0.00 | 33 | |
| 20260510021339 | 59 | 315 | 0.0 | 0.0 | 0.00 | 0.00 | 0.00 | 33 | |
| 20260510020839 | 59 | 315 | 0.0 | 0.0 | 0.00 | 0.00 | 0.00 | 33 | |
| 20260510020339 | 60 | 315 | 0.0 | 0.0 | 0.00 | 0.00 | 0.00 | 32 | |
| 20260510015839 | 60 | 315 | 0.0 | 0.0 | 0.00 | 0.00 | 0.00 | 32 | |
| 20260510015339 | 61 | 315 | 0.0 | 0.0 | 0.00 | 0.00 | 0.00 | 34 | |
| 20260510014839 | 62 | 315 | 0.0 | 0.0 | 0.00 | 0.00 | 0.00 | 31 | |
| 20260510014339 | 63 | 315 | 0.0 | 0.9 | 0.00 | 0.00 | 0.00 | 31 | |
| 20260510013839 | 64 | 323 | 0.0 | 0.0 | 0.00 | 0.00 | 0.00 | 29 | |
| 20260510013339 | 65 | 323 | 0.0 | 1.7 | 0.00 | 0.00 | 0.00 | 25 | |
| 20260510012839 | 66 | 302 | 0.0 | 0.0 | 0.00 | 0.00 | 0.00 | 22 | |
| 20260510012339 | 67 | 302 | 0.0 | 0.0 | 0.00 | 0.00 | 0.00 | 22 | |
| 20260510011839 | 68 | 302 | 0.0 | 0.0 | 0.00 | 0.00 | 0.00 | 21 | |
| 20260510011339 | 68 | 302 | 0.0 | 0.9 | 0.00 | 0.00 | 0.00 | 20 | |
| 20260510010839 | 69 | 326 | 0.0 | 0.9 | 0.00 | 0.00 | 0.00 | 17 | |
| 20260510010339 | 69 | 309 | 0.0 | 4.3 | 0.00 | 0.00 | 0.00 | 14 | |
| 20260510005839 | 70 | 338 | 0.0 | 2.6 | 0.00 | 0.00 | 0.00 | 16 | |
| 20260510005339 | 69 | 348 | 1.7 | 4.3 | 0.00 | 0.00 | 0.00 | 15 | |
| 20260510004839 | 69 | 8 | 0.0 | 3.5 | 0.00 | 0.00 | 0.00 | 17 | |
| 20260510004339 | 69 | 213 | 0.0 | 0.0 | 0.00 | 0.00 | 0.00 | 20 | |
| 20260510003839 | 70 | 213 | 0.0 | 0.0 | 0.00 | 0.00 | 0.00 | 21 | |
| 20260510003339 | 70 | 213 | 0.0 | 0.0 | 0.00 | 0.00 | 0.00 | 17 | |
| 20260510002839 | 71 | 213 | 0.0 | 0.0 | 0.00 | 0.00 | 0.00 | 18 | |
| 20260510002339 | 72 | 213 | 0.0 | 0.0 | 0.00 | 0.00 | 0.00 | 16 | |
| 20260510001839 | 72 | 213 | 0.0 | 0.0 | 0.00 | 0.00 | 0.00 | 15 | |
| 20260510001339 | 72 | 213 | 0.0 | 0.9 | 0.00 | 0.00 | 0.00 | 13 | |
| 20260510000839 | 71 | 303 | 0.0 | 6.1 | 0.00 | 0.00 | 0.00 | 14 | |
| 20260510000341 | 72 | 82 | 5.2 | 5.2 | 0.00 | 0.00 | 0.00 | 15 | |
| 20260509235839 | 72 | 262 | 0.0 | 0.0 | 0.00 | 0.00 | 0.00 | 15 | |
| 20260509235339 | 72 | 262 | 0.0 | 0.0 | 0.00 | 0.00 | 0.00 | 14 | |
| 20260509234839 | 72 | 262 | 0.0 | 2.6 | 0.00 | 0.00 | 0.00 | 13 | |
| 20260509234339 | 72 | 172 | 0.9 | 6.1 | 0.00 | 0.00 | 0.00 | 14 | |
| 20260509233839 | 72 | 143 | 3.5 | 6.1 | 0.00 | 0.00 | 0.00 | 13 | |
| 20260509233339 | 72 | 309 | 0.9 | 5.2 | 0.00 | 0.00 | 0.00 | 13 | |
| 20260509232839 | 73 | 91 | 0.9 | 7.0 | 0.00 | 0.00 | 0.00 | 12 | |
| 20260509232339 | 73 | 260 | 4.3 | 7.0 | 0.00 | 0.00 | 0.00 | 12 | |
| 20260509231839 | 73 | 275 | 0.0 | 3.5 | 0.00 | 0.00 | 0.00 | 13 | |
| 20260509231339 | 74 | 227 | 0.0 | 0.9 | 0.00 | 0.00 | 0.00 | 13 | |
| 20260509230839 | 74 | 233 | 0.0 | 4.3 | 0.00 | 0.00 | 0.00 | 13 | |
| 20260509230339 | 73 | 201 | 3.5 | 6.1 | 0.00 | 0.00 | 0.00 | 13 | |
| 20260509225839 | 73 | 36 | 4.3 | 7.0 | 0.00 | 0.00 | 0.00 | 14 | |
| 20260509225339 | 73 | 192 | 0.0 | 4.3 | 0.00 | 0.00 | 0.00 | 14 | |
| 20260509224839 | 73 | 226 | 2.6 | 5.2 | 0.00 | 0.00 | 0.00 | 13 | |
| 20260509224339 | 74 | 15 | 0.0 | 7.8 | 0.00 | 0.00 | 0.00 | 12 | |
| 20260509223839 | 74 | 282 | 3.5 | 7.0 | 0.00 | 0.00 | 0.00 | 12 | |
| 20260509223339 | 75 | 122 | 0.9 | 13.9 | 0.00 | 0.00 | 0.00 | 11 | |
| 20260509222839 | 77 | 330 | 1.7 | 4.3 | 0.00 | 0.00 | 0.00 | 12 | |
| 20260509222339 | 77 | 295 | 0.0 | 7.0 | 0.00 | 0.00 | 0.00 | 12 | |
| 20260509221839 | 76 | 8 | 0.9 | 3.5 | 0.00 | 0.00 | 0.00 | 11 | |
| 20260509221339 | 75 | 274 | 3.5 | 7.8 | 0.00 | 0.00 | 0.00 | 12 | |
| 20260509220839 | 76 | 334 | 0.0 | 2.6 | 0.00 | 0.00 | 0.00 | 12 | |
| 20260509220339 | 76 | 213 | 0.0 | 5.2 | 0.00 | 0.00 | 0.00 | 11 | |
| 20260509215839 | 77 | 4 | 0.0 | 7.0 | 0.00 | 0.00 | 0.00 | 11 | |
| 20260509215339 | 77 | 278 | 2.6 | 10.4 | 0.00 | 0.00 | 0.00 | 11 | |
| 20260509214839 | 77 | 298 | 2.6 | 7.8 | 0.00 | 0.00 | 0.00 | 12 | |
| 20260509214339 | 76 | 300 | 1.7 | 7.8 | 0.00 | 0.00 | 0.00 | 11 | |
| 20260509213839 | 76 | 234 | 7.0 | 7.8 | 0.00 | 0.00 | 0.00 | 11 | |
| 20260509213339 | 76 | 253 | 5.2 | 12.2 | 0.00 | 0.00 | 0.00 | 12 | |
| 20260509212839 | 76 | 248 | 1.7 | 6.1 | 0.00 | 0.00 | 0.00 | 11 | |
| 20260509212339 | 78 | 336 | 4.3 | 7.0 | 0.00 | 0.00 | 0.00 | 11 | |
| 20260509211839 | 78 | 293 | 5.2 | 8.7 | 0.00 | 0.00 | 0.00 | 11 | |
| 20260509211339 | 77 | 240 | 1.7 | 7.0 | 0.00 | 0.00 | 0.00 | 11 | |
| 20260509210839 | 77 | 298 | 0.0 | 8.7 | 0.00 | 0.00 | 0.00 | 11 | |
| 20260509210339 | 78 | 217 | 0.9 | 3.5 | 0.00 | 0.00 | 0.00 | 11 | |
| 20260509205839 | 77 | 170 | 0.0 | 5.2 | 0.00 | 0.00 | 0.00 | 12 | |
| 20260509205627 | 76 | 271 | 2.6 | 6.1 | 0.00 | 0.00 | 0.00 | 11 | |
| 20260509205339 | 76 | 271 | 2.6 | 6.1 | 0.00 | 0.00 | 0.00 | 11 | |
| 20260509204839 | 75 | 316 | 5.2 | 10.4 | 0.00 | 0.00 | 0.00 | 11 |